| time (UTC) | temp F | wind direction | speed MPH | gust MPH | rain 1hr in | rain 24hr in | rain mn in | humidity % | barometer mb |
| 20260504050003 | 40 | 60 | 0.0 | 0.0 | 0.00 | 0.00 | 0.00 | 81 | 1011.5 |
| 20260504043003 | 41 | 60 | 0.0 | 0.0 | 0.00 | 0.00 | 0.00 | 81 | 1011.4 |
| 20260504041602 | 41 | 60 | 0.0 | 0.0 | 0.00 | 0.00 | 0.00 | 82 | 1011.5 |
| 20260504040005 | 42 | 60 | 0.0 | 0.0 | 0.00 | 0.00 | 0.00 | 78 | 1011.4 |
| 20260504034503 | 42 | 60 | 0.0 | 0.0 | 0.00 | 0.00 | 0.00 | 78 | 1011.3 |
| 20260504033003 | 42 | 60 | 0.0 | 0.0 | 0.00 | 0.00 | 0.00 | 76 | 1011.4 |
| 20260504031630 | 42 | 60 | 0.0 | 0.0 | 0.00 | 0.00 | 0.00 | 74 | 1011.4 |
| 20260504030105 | 43 | 60 | 0.0 | 0.0 | 0.00 | 0.00 | 0.00 | 75 | 1011.3 |
| 20260504024502 | 43 | 60 | 0.0 | 0.0 | 0.00 | 0.00 | 0.00 | 73 | 1011.3 |
| 20260504023102 | 43 | 60 | 0.0 | 0.0 | 0.00 | 0.00 | 0.00 | 74 | 1011.3 |
| 20260504021612 | 43 | 60 | 0.0 | 1.0 | 0.00 | 0.00 | 0.00 | 73 | 1011.2 |
| 20260504020004 | 44 | 60 | 0.0 | 0.0 | 0.00 | 0.00 | 0.00 | 74 | 1011.2 |
| 20260504014505 | 44 | 60 | 0.0 | 0.0 | 0.00 | 0.00 | 0.00 | 72 | 1011.1 |
| 20260504013113 | 45 | 60 | 0.0 | 0.0 | 0.00 | 0.00 | 0.00 | 73 | 1011.0 |
| 20260504011502 | 46 | 60 | 0.0 | 0.0 | 0.00 | 0.00 | 0.00 | 69 | 1011.1 |
| 20260504010128 | 47 | 60 | 0.0 | 0.0 | 0.00 | 0.00 | 0.00 | 63 | 1010.9 |
| 20260504004602 | 48 | 60 | 0.0 | 0.0 | 0.00 | 0.00 | 0.00 | 59 | 1010.8 |
| 20260504003001 | 49 | 60 | 0.0 | 2.0 | 0.00 | 0.00 | 0.00 | 55 | 1010.6 |
| 20260504001503 | 51 | 60 | 0.0 | 2.0 | 0.00 | 0.00 | 0.00 | 49 | 1010.5 |
| 20260504000111 | 52 | 60 | 0.0 | 6.0 | 0.00 | 0.00 | 0.00 | 48 | 1010.4 |
| 20260503234502 | 53 | 111 | 1.0 | 7.0 | 0.00 | 0.00 | 0.00 | 46 | 1010.2 |
| 20260503233103 | 53 | 209 | 0.0 | 6.0 | 0.00 | 0.00 | 0.00 | 44 | 1010.0 |
| 20260503231503 | 54 | 199 | 2.0 | 7.0 | 0.00 | 0.00 | 0.00 | 44 | 1010.0 |
| 20260503224602 | 54 | 46 | 1.0 | 5.0 | 0.00 | 0.00 | 0.00 | 40 | 1009.8 |
| 20260503223103 | 55 | 219 | 2.0 | 16.0 | 0.00 | 0.00 | 0.00 | 39 | 1009.7 |
| 20260503221502 | 55 | 171 | 1.0 | 9.0 | 0.00 | 0.00 | 0.00 | 37 | 1009.7 |
| 20260503220105 | 55 | 301 | 3.0 | 13.0 | 0.00 | 0.00 | 0.00 | 36 | 1009.5 |
| 20260503214601 | 56 | 128 | 3.0 | 9.0 | 0.00 | 0.00 | 0.00 | 34 | 1009.5 |
| 20260503213003 | 57 | 17 | 2.0 | 8.0 | 0.00 | 0.00 | 0.00 | 30 | 1009.3 |
| 20260503211502 | 57 | 286 | 2.0 | 10.0 | 0.00 | 0.00 | 0.00 | 31 | 1009.3 |
| 20260503210104 | 57 | 283 | 4.0 | 10.0 | 0.00 | 0.00 | 0.00 | 28 | 1009.1 |
| 20260503204622 | 57 | 167 | 2.0 | 11.0 | 0.00 | 0.00 | 0.00 | 31 | 1009.3 |
| 20260503203005 | 57 | 152 | 4.0 | 10.0 | 0.00 | 0.00 | 0.00 | 30 | 1009.3 |
| 20260503201603 | 58 | 42 | 2.0 | 6.0 | 0.00 | 0.00 | 0.00 | 31 | 1009.2 |
| 20260503200105 | 57 | 222 | 2.0 | 10.0 | 0.00 | 0.00 | 0.00 | 32 | 1009.4 |
| 20260503194603 | 56 | 152 | 3.0 | 14.0 | 0.00 | 0.00 | 0.00 | 32 | 1009.7 |
| 20260503193002 | 56 | 28 | 1.0 | 15.0 | 0.00 | 0.00 | 0.00 | 35 | 1009.7 |
| 20260503191607 | 56 | 329 | 2.0 | 11.0 | 0.00 | 0.00 | 0.00 | 33 | 1009.9 |
| 20260503190004 | 54 | 69 | 4.0 | 11.0 | 0.00 | 0.00 | 0.00 | 36 | 1009.9 |
| 20260503184502 | 52 | 268 | 2.0 | 8.0 | 0.00 | 0.00 | 0.00 | 38 | 1010.3 |
| 20260503183108 | 53 | 214 | 3.0 | 8.0 | 0.00 | 0.00 | 0.00 | 38 | 1010.5 |
| 20260503180005 | 53 | 84 | 1.0 | 11.0 | 0.00 | 0.01 | 0.00 | 41 | 1010.6 |
| 20260503174600 | 52 | 185 | 3.0 | 8.0 | 0.00 | 0.01 | 0.00 | 40 | 1010.6 |
| 20260503173001 | 52 | 80 | 3.0 | 10.0 | 0.00 | 0.01 | 0.00 | 41 | 1010.7 |
| 20260503171603 | 51 | 19 | 2.0 | 13.0 | 0.00 | 0.01 | 0.00 | 42 | 1010.8 |
| 20260503160104 | 48 | 70 | 0.0 | 9.0 | 0.00 | 0.01 | 0.00 | 47 | 1011.4 |
| 20260503130104 | 46 | 250 | 3.0 | 15.0 | 0.00 | 0.01 | 0.00 | 55 | 1011.5 |
| 20260503081604 | 33 | 55 | 0.0 | 0.0 | 0.00 | 0.01 | 0.00 | 87 | 1010.5 |
| 20260503071505 | 35 | 55 | 0.0 | 0.0 | 0.00 | 0.03 | 0.00 | 83 | 1010.7 |
| 20260503070115 | 35 | 55 | 0.0 | 0.0 | 0.00 | 0.03 | 0.00 | 83 | 1010.7 |